Wind_Speed
28 27 25 24 26 19 14 5 2 13 18 22 20 23 27 32 38 35 47 58 53 51 53 51 51 48 50 47 44 30 33 65 63 56 58 76 62 68 69 60 57 54 52 50
18 12 7 4 1 3 10 11 6 6 7 11 9 8 8 11 11 13 21 28 36 41 43 43 46 43 41 34 37 22 33 57 48 42 52 54 45 53 59 58 56 55 54 54
4 11 14 14 11 8 7 7 11 15 16 14 17 20 22 20 12 8 16 19 26 29 31 32 33 34 30 35 31 22 27 56 42 48 48 47 40 41 55 57 55 51 58 59
22 21 19 18 20 19 20 18 14 14 18 22 26 27 13 9 11 11 8 15 19 23 26 27 32 33 32 40 27 30 32 42 57 51 52 42 43 44 46 47 48 51 49 59
20 17 19 20 19 19 21 18 16 15 16 16 19 14 9 6 5 8 15 17 16 21 27 34 38 33 23 33 32 31 31 38 44 46 41 43 41 42 48 56 58 46 61 59
17 13 14 14 13 18 18 20 21 22 8 15 7 5 5 1 4 12 14 17 18 24 35 33 25 5 15 25 14 22 28 27 33 32 35 40 39 39 38 39 41 37 32 28
8 9 12 14 19 15 24 22 11 21 23 16 8 5 4 6 12 17 21 20 21 34 32 22 8 17 11 4 19 21 15 25 28 24 37 39 40 36 40 40 35 38 39 43
10 10 13 12 15 15 20 14 6 13 6 6 11 10 14 14 22 27 31 23 25 26 24 18 23 6 8 5 17 27 27 25 30 28 30 35 35 30 42 31 39 41 37 41
12 12 13 13 13 14 15 15 11 14 20 19 19 14 15 28 30 31 20 37 23 23 8 22 22 14 13 9 12 14 17 19 19 13 17 23 29 34 21 21 38 45 37 36
16 18 18 19 22 19 18 18 20 18 25 28 19 21 18 13 29 30 22 25 24 14 21 20 19 17 14 8 12 7 6 13 10 8 3 6 12 16 16 16 11 25 30 30
32 32 30 27 28 29 31 34 36 36 30 32 32 25 21 33 32 26 22 24 12 10 17 20 17 18 19 16 13 11 12 13 14 16 17 19 17 19 20 20 20 18 19 24
19 23 23 22 24 25 25 25 24 29 34 30 38 40 31 21 23 25 13 11 22 22 26 23 21 17 11 8 6 3 3 4 5 6 8 11 16 19 22 24 27 29 27 28
16 15 13 16 16 19 19 21 19 17 18 15 18 32 37 35 29 27 24 19 14 16 15 15 11 7 4 3 3 5 8 11 12 14 17 19 22 23 26 28 32 34 34 37
15 13 13 14 15 17 17 18 17 16 14 19 19 19 21 21 20 16 13 11 9 8 5 6 5 1 1 5 6 8 10 13 17 22 26 29 31 34 36 38 39 40 42 42
9 10 12 14 16 18 17 17 15 16 21 21 22 24 22 19 17 15 14 13 11 8 11 12 9 10 9 9 12 12 14 18 22 26 29 32 35 36 38 40 43 47 50 51
12 13 14 15 17 19 19 21 23 25 25 25 27 25 24 23 21 19 17 14 9 9 10 12 9 9 15 13 14 19 22 26 30 33 38 41 44 47 48 50 51 51 49 50
23 22 21 22 23 22 23 23 23 22 22 20 19 17 15 12 12 11 9 6 7 9 9 10 14 16 16 18 22 28 32 35 39 44 46 48 50 52 56 61 61 61 61 61
20 20 20 18 17 18 15 15 14 13 14 14 13 13 14 15 17 16 16 16 15 15 17 18 18 21 26 29 33 35 38 45 48 53 55 58 59 60 62 64 65 68 70 70
12 12 11 11 10 10 8 10 11 12 16 14 15 17 17 17 17 18 19 20 20 20 18 19 23 27 32 37 38 45 51 58 62 66 68 67 66 69 69 70 72 74 75 74
9 8 9 9 10 10 12 12 14 15 15 17 16 16 16 14 15 17 16 15 17 18 22 27 31 35 40 44 48 54 60 66 72 79 79 76 73 73 76 79 77 78 78 77
11 10 8 7 6 7 7 7 8 9 10 12 15 17 18 18 19 16 17 20 21 26 31 34 37 39 46 52 58 63 70 76 81 87 88 80 78 79 79 75 74 68 67 68
9 9 9 9 10 10 10 9 9 9 10 11 13 14 15 18 19 20 21 25 28 29 29 35 39 46 50 55 61 68 75 81 87 95 85 79 75 72 72 65 56 50 51 53
11 11 10 9 9 9 11 11 12 12 10 11 11 15 15 17 18 21 23 25 29 33 36 40 43 47 52 58 65 70 77 83 92 87 79 74 68 66 66 61 52 50 48 49
12 11 12 12 13 13 13 14 15 15 14 14 15 17 18 19 21 23 25 27 30 33 37 41 48 55 60 65 70 77 84 89 83 72 67 67 68 65 61 57 44 46 47 48
13 14 12 15 15 17 16 17 18 18 17 17 18 21 20 21 22 24 27 30 34 37 41 45 51 56 60 66 74 82 88 84 75 66 63 64 63 58 51 44 39 35 33 41
15 16 14 16 17 17 19 19 20 19 19 19 20 21 22 23 24 26 29 32 37 40 45 49 56 58 63 70 79 84 87 77 68 62 62 60 54 46 41 35 29 27 33 28
Wind_Direction
290 286 290 289 294 293 304 16 51 267 275 277 278 264 246 242 246 236 235 234 233 235 235 232 234 233 235 233 231 245 231 215 223 223 214 223 222 219 235 224 227 230 232 234
303 303 300 287 231 102 112 86 74 122 70 78 80 131 174 127 131 173 209 213 219 223 227 229 230 225 228 222 214 230 235 218 217 214 211 218 214 221 219 221 225 230 232 235
105 120 126 113 115 88 53 60 84 96 86 67 66 79 76 65 96 168 191 200 206 212 217 218 218 208 211 211 211 213 225 203 195 209 212 200 195 210 222 223 226 226 232 234
114 118 109 97 103 102 95 84 90 97 88 86 94 110 114 71 103 124 154 182 186 203 203 206 194 188 199 199 199 186 208 232 198 221 215 222 223 216 195 212 211 217 223 234
91 103 105 96 84 93 82 57 79 86 91 99 87 94 128 145 154 159 164 174 181 184 191 180 185 191 221 209 213 198 203 210 215 220 222 223 232 240 236 212 213 218 226 225
76 76 90 79 63 11 360 5 3 360 322 348 75 162 357 260 52 137 151 158 167 178 175 169 170 215 211 235 212 216 196 204 206 218 218 225 228 227 221 223 230 224 232 227
46 42 17 14 11 2 3 355 40 52 54 40 53 64 181 159 131 115 132 142 154 167 181 177 166 191 165 227 240 190 198 214 210 217 210 219 228 239 233 224 225 225 236 251
63 45 37 30 62 58 87 77 64 76 62 104 113 112 114 122 115 126 139 139 143 142 186 194 156 155 187 179 163 170 192 198 196 212 219 227 230 249 243 241 243 244 249 250
65 61 67 81 83 90 96 107 95 73 100 107 98 94 111 116 114 119 128 136 170 149 139 137 127 141 158 183 144 108 126 146 179 178 206 205 227 235 238 225 245 236 243 244
82 85 90 89 99 99 94 102 103 105 98 95 113 112 110 113 118 123 123 128 165 139 121 113 103 92 81 55 40 54 13 33 27 30 82 186 210 205 231 263 260 226 240 237
101 103 103 103 101 97 89 97 95 90 107 91 92 102 110 121 121 130 147 160 160 73 111 109 99 89 79 69 57 48 45 27 13 358 344 331 321 308 301 291 285 279 272 255
108 106 106 100 96 93 91 92 91 86 94 107 82 87 111 123 123 126 129 74 93 104 91 86 85 82 85 101 110 81 58 27 350 319 296 278 269 268 272 270 264 254 247 234
104 102 100 101 94 96 89 88 83 81 85 78 81 105 113 115 110 113 114 107 111 130 122 120 109 97 72 357 320 324 323 306 294 281 271 262 256 255 255 256 254 256 256 255
109 102 96 88 86 83 83 81 68 65 66 78 99 92 102 111 117 120 116 115 105 101 110 99 69 66 77 21 1 349 321 308 292 281 273 269 266 264 261 258 251 249 250 249
116 88 67 55 54 50 58 68 69 78 77 80 82 85 88 95 103 103 94 88 87 88 74 67 59 33 14 360 342 321 305 295 295 295 289 285 281 277 273 270 267 265 259 256
78 74 70 67 67 74 70 73 75 76 75 73 67 66 62 61 64 65 62 59 50 51 37 30 18 7 7 331 319 321 315 310 304 299 293 288 283 276 274 273 272 268 266 263
85 81 78 75 71 66 65 61 60 61 60 56 56 55 56 58 61 63 58 26 353 357 8 3 353 348 333 331 334 327 324 314 307 301 296 291 285 280 276 273 271 268 269 268
70 69 64 59 56 53 46 46 44 49 45 46 39 40 32 24 24 16 16 7 355 356 1 354 348 343 343 340 333 324 322 316 308 304 300 298 293 286 280 275 272 269 267 264
70 69 63 57 57 49 37 38 35 29 20 14 24 24 24 16 13 13 7 2 4 8 1 353 350 345 338 334 329 325 323 320 316 313 307 303 296 289 276 268 268 267 265 266
69 62 57 45 29 22 24 22 21 26 17 13 12 19 26 20 17 13 13 7 7 1 347 345 347 347 345 337 333 329 328 321 318 313 309 302 294 287 284 283 282 279 278 277
38 34 29 26 14 16 14 13 7 5 3 12 5 3 4 1 352 349 350 349 347 343 345 347 346 343 338 334 332 328 327 323 319 315 313 302 295 292 292 293 292 288 283 279
8 4 5 1 358 351 347 351 344 342 348 345 346 347 348 341 337 334 331 335 334 339 343 338 335 333 330 331 330 325 323 320 319 318 311 303 297 293 293 294 292 285 279 277
349 346 339 331 332 327 325 324 323 319 314 316 322 328 331 323 322 321 320 318 319 320 318 319 319 324 325 324 323 320 319 319 319 318 308 304 301 296 291 290 290 283 277 274
342 331 323 319 317 315 315 311 307 307 306 303 302 312 315 316 314 314 313 314 313 313 312 315 316 317 319 319 318 319 321 323 321 313 305 303 300 297 292 288 284 279 283 282
322 320 315 307 308 305 310 308 306 305 305 303 302 306 304 307 311 312 308 310 312 310 312 312 315 318 320 320 321 323 324 326 320 312 307 305 301 297 292 286 279 283 305 288
306 306 310 302 305 300 306 306 305 303 301 301 302 302 301 303 308 310 309 313 316 315 316 317 318 319 320 321 323 325 329 328 319 314 313 308 303 296 288 281 273 288 306 297
Height
5623 5621 5619 5614 5609 5605 5600 5598 5595 5593 5592 5587 5584 5581 5584 5584 5590 5598 5605 5618 5631 5643 5652 5663 5672 5682 5688 5696 5705 5710 5712 5721 5733 5737 5743 5750 5754 5757 5765 5771 5778 5783 5788 5792
5617 5615 5612 5607 5605 5603 5600 5598 5595 5592 5588 5584 5578 5575 5579 5587 5589 5595 5605 5613 5624 5634 5645 5656 5665 5675 5683 5692 5699 5703 5705 5715 5727 5729 5736 5741 5746 5751 5757 5762 5768 5774 5778 5783
5613 5612 5609 5607 5607 5605 5604 5600 5597 5594 5591 5588 5584 5583 5588 5591 5594 5600 5605 5613 5622 5631 5643 5653 5662 5671 5680 5688 5695 5697 5702 5712 5718 5719 5730 5735 5740 5746 5750 5753 5758 5763 5767 5772
5615 5614 5613 5611 5609 5606 5603 5602 5599 5597 5594 5592 5590 5589 5594 5596 5598 5603 5607 5616 5624 5632 5641 5651 5661 5671 5675 5682 5687 5689 5696 5700 5708 5718 5726 5731 5737 5740 5739 5745 5748 5753 5758 5762
5622 5618 5616 5615 5613 5610 5608 5605 5603 5601 5597 5596 5597 5597 5600 5600 5602 5603 5609 5617 5625 5632 5639 5650 5659 5670 5675 5679 5681 5686 5693 5697 5706 5713 5721 5724 5728 5732 5736 5737 5740 5745 5747 5751
5626 5622 5619 5617 5615 5612 5609 5609 5604 5601 5601 5600 5601 5600 5602 5602 5604 5607 5612 5617 5626 5633 5641 5652 5661 5668 5672 5672 5677 5681 5685 5693 5702 5709 5711 5715 5719 5724 5728 5731 5733 5737 5741 5743
5627 5625 5622 5619 5618 5616 5612 5609 5610 5609 5605 5606 5604 5604 5603 5605 5608 5611 5615 5621 5628 5639 5648 5654 5660 5667 5669 5671 5676 5679 5683 5692 5699 5701 5703 5709 5714 5720 5722 5726 5728 5732 5736 5738
5630 5628 5625 5621 5620 5620 5618 5617 5614 5613 5614 5612 5609 5609 5610 5611 5613 5615 5618 5626 5630 5640 5650 5657 5661 5663 5666 5670 5674 5677 5681 5689 5691 5692 5698 5704 5710 5716 5721 5725 5726 5729 5731 5733
5633 5631 5628 5625 5623 5622 5621 5622 5620 5619 5617 5616 5614 5615 5614 5614 5619 5622 5623 5634 5641 5647 5656 5659 5659 5663 5667 5671 5676 5676 5679 5682 5686 5690 5694 5701 5706 5710 5712 5717 5717 5720 5724 5724
5637 5636 5632 5630 5629 5628 5626 5626 5625 5624 5622 5621 5621 5620 5619 5622 5626 5630 5633 5642 5651 5654 5655 5658 5660 5663 5666 5671 5673 5676 5678 5681 5685 5688 5695 5699 5703 5705 5708 5709 5710 5712 5715 5717
5642 5641 5640 5637 5636 5635 5634 5633 5631 5627 5626 5628 5626 5626 5626 5626 5637 5641 5644 5649 5654 5655 5658 5659 5662 5665 5668 5673 5675 5678 5679 5681 5684 5687 5690 5692 5695 5699 5700 5703 5704 5705 5707 5708
5647 5647 5645 5644 5641 5641 5641 5640 5639 5639 5637 5636 5632 5635 5635 5639 5643 5647 5650 5652 5655 5657 5660 5662 5663 5667 5670 5673 5675 5678 5680 5681 5683 5686 5689 5692 5693 5693 5695 5695 5696 5696 5696 5698
5652 5651 5650 5650 5650 5647 5647 5646 5646 5645 5646 5643 5645 5643 5641 5644 5647 5651 5653 5655 5658 5659 5660 5662 5665 5668 5672 5675 5677 5677 5676 5679 5680 5682 5685 5686 5687 5685 5684 5685 5686 5685 5685 5686
5656 5655 5654 5654 5652 5653 5654 5653 5652 5651 5651 5651 5651 5652 5652 5653 5656 5658 5660 5663 5664 5667 5669 5669 5670 5673 5673 5672 5674 5674 5676 5678 5680 5679 5679 5679 5679 5678 5677 5677 5676 5674 5673 5673
5660 5660 5660 5659 5658 5658 5658 5658 5657 5656 5655 5655 5656 5655 5657 5659 5660 5661 5662 5664 5665 5667 5665 5666 5669 5668 5671 5671 5671 5674 5677 5677 5676 5674 5673 5670 5669 5667 5665 5664 5662 5662 5660 5659
5667 5666 5665 5664 5663 5662 5662 5661 5661 5661 5660 5660 5660 5660 5660 5661 5663 5664 5665 5667 5669 5666 5665 5663 5668 5667 5664 5674 5673 5672 5671 5669 5669 5667 5665 5662 5658 5655 5651 5649 5647 5645 5644 5643
5670 5670 5669 5668 5667 5666 5666 5666 5666 5666 5666 5666 5665 5666 5666 5666 5668 5668 5668 5668 5668 5665 5663 5665 5663 5664 5670 5668 5665 5664 5658 5660 5659 5656 5652 5647 5644 5640 5634 5632 5627 5625 5623 5621
5675 5674 5673 5673 5672 5671 5670 5668 5669 5669 5668 5667 5668 5667 5666 5665 5664 5663 5665 5666 5663 5661 5661 5662 5660 5661 5659 5656 5655 5653 5651 5648 5642 5637 5629 5625 5623 5619 5615 5610 5605 5602 5600 5601
5680 5678 5678 5677 5676 5675 5672 5671 5670 5669 5669 5667 5666 5666 5665 5664 5663 5664 5663 5661 5659 5660 5660 5660 5657 5655 5652 5649 5646 5640 5633 5626 5619 5611 5604 5597 5591 5586 5583 5578 5575 5573 5572 5570
5684 5682 5681 5678 5677 5675 5673 5670 5669 5668 5667 5665 5665 5663 5663 5664 5662 5663 5662 5660 5658 5656 5655 5651 5646 5642 5638 5635 5631 5626 5621 5613 5603 5595 5582 5572 5560 5554 5551 5546 5543 5543 5541 5542
5685 5683 5682 5680 5679 5677 5676 5673 5671 5670 5671 5666 5663 5660 5658 5657 5656 5657 5657 5655 5653 5648 5642 5637 5636 5635 5631 5627 5619 5612 5601 5592 5584 5571 5555 5541 5531 5524 5519 5515 5512 5512 5511 5512
5688 5685 5683 5681 5679 5677 5674 5673 5671 5670 5667 5665 5664 5662 5660 5657 5655 5653 5650 5646 5642 5639 5635 5632 5631 5628 5621 5611 5605 5598 5588 5575 5557 5539 5525 5515 5507 5500 5493 5487 5487 5485 5484 5484
5689 5687 5684 5682 5680 5678 5675 5673 5671 5668 5667 5665 5663 5661 5659 5658 5655 5652 5649 5646 5641 5637 5634 5630 5626 5619 5612 5604 5596 5585 5572 5556 5538 5518 5500 5487 5481 5474 5471 5468 5464 5460 5458 5459
5688 5686 5684 5682 5679 5676 5675 5673 5671 5668 5666 5664 5662 5659 5657 5655 5651 5648 5646 5643 5639 5635 5630 5624 5617 5609 5599 5589 5578 5565 5550 5533 5515 5498 5484 5471 5460 5452 5447 5445 5444 5442 5438 5434
5685 5683 5682 5679 5677 5674 5672 5670 5667 5665 5663 5661 5659 5656 5654 5651 5648 5645 5641 5638 5634 5629 5623 5616 5609 5601 5591 5579 5565 5549 5532 5514 5497 5480 5466 5453 5441 5432 5427 5425 5424 5424 5422 5416
5681 5680 5678 5675 5673 5671 5669 5666 5663 5661 5658 5656 5654 5651 5648 5646 5643 5639 5635 5631 5627 5622 5615 5607 5599 5590 5579 5566 5550 5534 5514 5496 5478 5464 5450 5436 5424 5416 5411 5410 5412 5411 5408 5404